LZ3VG-2 Weather Reports


time (UTC)temp
C
wind
direction
speed
KPH
gust
KPH
rain 1hr
cm
rain 24hr
cm
rain mn
cm
humidity
%
barometer
mb
20260508062527 13 190 17.7 22.5 0.00 0.00 0.00 93 1016.9
20260508061524 13 186 14.5 19.3 0.00 0.00 0.00 95 1017.0
20260508060541 12 189 19.3 20.9 0.00 0.00 0.00 96 1016.9
20260508055619 12 184 16.1 19.3 0.00 0.00 0.00 97 1016.8
20260508054515 12 188 17.7 20.9 0.00 0.00 0.00 98 1017.0
20260508053533 12 189 19.3 20.9 0.00 0.00 0.00 98 1016.9
20260508052530 12 189 17.7 22.5 0.00 0.00 0.00 98 1017.0
20260508051526 11 194 19.3 22.5 0.00 0.00 0.00 98 1017.0
20260508050523 11 190 19.3 22.5 0.00 0.00 0.00 98 1016.9
20260508045521 12 182 16.1 17.7 0.00 0.00 0.00 98 1016.7
20260508044517 12 184 14.5 20.9 0.00 0.00 0.00 98 1016.6
20260508043535 11 192 17.7 22.5 0.00 0.00 0.00 98 1016.6
20260508042532 12 182 17.7 20.9 0.00 0.00 0.00 98 1016.5
20260508041529 11 182 16.1 19.3 0.00 0.00 0.00 99 1016.4
20260508040526 11 182 17.7 19.3 0.00 0.00 0.00 99 1016.2
20260508035524 11 185 17.7 24.1 0.00 0.00 0.00 99 1016.1
20260508034521 11 186 16.1 20.9 0.00 0.00 0.00 99 1016.2
20260508033518 11 180 16.1 20.9 0.00 0.00 0.00 99 1016.2
20260508032534 11 179 14.5 19.3 0.00 0.00 0.00 99 1016.3
20260508031532 11 183 16.1 20.9 0.00 0.00 0.00 99 1016.2
20260508030529 11 182 16.1 19.3 0.00 0.00 0.00 99 1016.0
20260508025526 11 182 16.1 19.3 0.00 0.00 0.00 99 1015.9
20260508024523 11 183 17.7 22.5 0.00 0.00 0.00 99 1015.9
20260508023600 11 183 16.1 22.5 0.00 0.00 0.00 99 1016.0
20260508022518 11 178 17.7 22.5 0.00 0.00 0.00 99 1016.0
20260508021535 11 177 20.9 22.5 0.00 0.00 0.00 99 1016.0
20260508020532 11 181 14.5 19.3 0.00 0.00 0.00 99 1016.0
20260508015549 11 178 17.7 20.9 0.00 0.00 0.00 99 1016.0
20260508014547 11 181 17.7 20.9 0.00 0.00 0.00 99 1016.0
20260508013523 11 180 16.1 17.7 0.00 0.00 0.00 99 1016.1
20260508012520 11 183 16.1 19.3 0.00 0.00 0.00 99 1016.1
20260508011517 11 181 17.7 22.5 0.00 0.00 0.00 98 1016.4
20260508010534 11 182 19.3 20.9 0.00 0.00 0.00 98 1016.3
20260508005531 11 181 16.1 17.7 0.00 0.00 0.00 98 1016.3
20260508004528 11 176 17.7 20.9 0.00 0.00 0.00 98 1016.4
20260508003525 11 176 17.7 19.3 0.00 0.00 0.00 98 1016.3
20260508002522 11 177 17.7 20.9 0.00 0.00 0.00 98 1016.5
20260508001539 11 181 16.1 19.3 0.00 0.00 0.00 98 1016.5
20260508000516 11 176 16.1 19.3 0.00 0.00 0.00 98 1016.5
20260507235534 11 166 17.7 20.9 0.00 0.00 0.00 98 1016.4
20260507234531 11 171 17.7 20.9 0.00 0.00 0.00 97 1016.5
20260507233528 12 162 17.7 24.1 0.00 0.00 0.00 97 1016.2
20260507232525 12 165 16.1 24.1 0.00 0.00 0.00 97 1016.4
20260507231522 12 153 16.1 24.1 0.00 0.00 0.00 97 1016.3
20260507230518 12 161 14.5 22.5 0.00 0.00 0.00 97 1016.4
20260507225516 12 156 16.1 22.5 0.00 0.00 0.00 97 1016.4
20260507224533 12 169 14.5 20.9 0.00 0.00 0.00 97 1016.6
20260507223530 12 159 16.1 22.5 0.00 0.00 0.00 97 1016.5
20260507222547 12 157 14.5 20.9 0.00 0.00 0.00 97 1016.7
20260507221523 12 155 14.5 24.1 0.00 0.00 0.00 97 1016.7
20260507220521 12 164 12.9 22.5 0.00 0.00 0.00 97 1016.7
20260507215518 12 146 16.1 24.1 0.00 0.00 0.00 97 1016.7
20260507214535 12 150 16.1 24.1 0.00 0.00 0.00 97 1016.8
20260507213532 12 146 14.5 24.1 0.00 0.00 0.00 98 1016.6
20260507212529 12 152 16.1 24.1 0.00 0.00 0.00 98 1016.7
20260507211526 12 145 14.5 24.1 0.00 0.00 0.00 98 1016.7
20260507210523 12 146 16.1 22.5 0.00 0.00 0.00 98 1016.6
20260507205600 12 152 14.5 19.3 0.00 0.00 0.00 97 1016.8
20260507204517 12 148 14.5 25.7 0.00 0.00 0.00 97 1016.7
20260507203534 12 150 16.1 25.7 0.00 0.00 0.00 97 1016.7
20260507202531 12 163 16.1 27.4 0.00 0.00 0.00 97 1016.6
20260507201528 12 156 16.1 25.7 0.00 0.00 0.00 97 1016.7
20260507200525 12 153 16.1 25.7 0.00 0.00 0.00 97 1016.8
20260507195522 12 150 14.5 22.5 0.00 0.00 0.00 97 1016.8
20260507194519 12 150 12.9 24.1 0.00 0.00 0.00 97 1016.8
20260507193536 12 142 16.1 24.1 0.00 0.00 0.00 97 1016.9
20260507192533 12 154 12.9 20.9 0.00 0.00 0.00 96 1016.9
20260507191530 12 157 14.5 20.9 0.00 0.00 0.00 96 1016.9
20260507190547 12 156 12.9 22.5 0.00 0.00 0.00 96 1016.9
20260507185524 12 144 16.1 24.1 0.00 0.00 0.00 96 1016.8
20260507184521 12 159 14.5 22.5 0.00 0.00 0.00 95 1016.9
20260507183518 12 147 17.7 29.0 0.00 0.00 0.00 95 1016.6
20260507182535 12 148 17.7 32.2 0.00 0.00 0.00 95 1016.6
20260507181532 12 146 16.1 30.6 0.00 0.00 0.00 95 1016.3
20260507180529 12 150 14.5 25.7 0.00 0.00 0.00 95 1016.3
20260507175526 12 145 14.5 27.4 0.00 0.00 0.00 95 1016.4
20260507174523 12 151 14.5 25.7 0.00 0.00 0.00 95 1016.4
20260507173520 12 149 17.7 29.0 0.00 0.00 0.00 95 1016.4
20260507172517 12 139 16.1 30.6 0.00 0.00 0.00 95 1016.3
20260507171534 12 130 16.1 29.0 0.00 0.00 0.00 94 1016.2
20260507170532 12 139 16.1 27.4 0.00 0.00 0.00 94 1016.2
20260507165529 12 132 16.1 25.7 0.00 0.00 0.00 93 1016.2
20260507164547 12 144 16.1 32.2 0.00 0.00 0.00 93 1016.2
20260507163523 12 127 16.1 30.6 0.00 0.00 0.00 92 1016.2
20260507162520 12 141 16.1 27.4 0.00 0.00 0.00 92 1016.1
20260507161517 13 145 16.1 30.6 0.00 0.00 0.00 92 1016.2
20260507160533 13 151 14.5 24.1 0.00 0.00 0.00 91 1016.1
20260507155530 13 149 14.5 22.5 0.00 0.00 0.00 90 1016.2
20260507154527 13 155 14.5 25.7 0.00 0.00 0.00 89 1016.2
20260507153544 13 148 14.5 27.4 0.00 0.00 0.00 88 1016.2
20260507152521 13 147 14.5 27.4 0.00 0.00 0.00 88 1016.1
20260507151518 13 150 14.5 27.4 0.00 0.00 0.00 86 1016.2
20260507150555 13 143 14.5 29.0 0.00 0.00 0.00 86 1016.3
20260507145532 13 144 16.1 24.1 0.00 0.00 0.00 86 1016.4
20260507144529 14 131 14.5 25.7 0.00 0.00 0.00 85 1016.4
20260507143526 14 142 16.1 29.0 0.00 0.00 0.00 85 1016.4
20260507142522 14 137 14.5 29.0 0.00 0.00 0.00 84 1016.5
20260507141520 14 143 14.5 29.0 0.00 0.00 0.00 84 1016.4
20260507140517 15 154 14.5 24.1 0.00 0.00 0.00 84 1016.5
20260507135534 15 136 11.3 25.7 0.00 0.00 0.00 83 1016.5
20260507134551 14 141 14.5 27.4 0.00 0.00 0.00 83 1016.5
20260507133528 14 160 14.5 29.0 0.00 0.00 0.00 84 1016.5
20260507132525 14 157 16.1 30.6 0.00 0.00 0.00 84 1016.4
20260507131522 14 130 16.1 24.1 0.00 0.00 0.00 83 1016.5
20260507130518 14 127 16.1 29.0 0.00 0.00 0.00 84 1016.6
20260507125556 14 140 16.1 29.0 0.00 0.00 0.00 85 1016.8
20260507124533 13 123 14.5 25.7 0.00 0.00 0.00 86 1016.8
20260507123529 13 121 19.3 30.6 0.00 0.00 0.00 86 1016.8
20260507122527 13 114 17.7 30.6 0.00 0.00 0.00 85 1017.0
20260507121524 14 111 14.5 24.1 0.00 0.00 0.00 84 1017.0
20260507120521 13 125 14.5 27.4 0.00 0.00 0.00 85 1017.1
20260507115537 14 148 16.1 27.4 0.00 0.00 0.00 84 1017.3
20260507114554 14 135 14.5 24.1 0.00 0.00 0.00 84 1017.3
20260507113531 14 138 17.7 27.4 0.00 0.00 0.00 84 1017.2
20260507112528 14 129 17.7 30.6 0.00 0.00 0.00 83 1017.3
20260507111524 14 144 14.5 27.4 0.00 0.00 0.00 82 1017.3
20260507110521 14 122 16.1 27.4 0.00 0.00 0.00 83 1017.4
20260507105518 14 139 16.1 27.4 0.00 0.00 0.00 82 1017.4
20260507104516 13 119 14.5 30.6 0.00 0.00 0.00 82 1017.3
20260507103533 13 137 16.1 30.6 0.00 0.00 0.00 82 1017.4
20260507102530 14 131 16.1 30.6 0.00 0.00 0.00 81 1017.6
20260507101527 13 126 14.5 27.4 0.00 0.00 0.00 82 1017.6
20260507100524 13 124 16.1 27.4 0.00 0.00 0.00 81 1017.6
20260507095521 14 139 14.5 25.7 0.00 0.00 0.00 81 1017.5
20260507094518 13 135 17.7 27.4 0.00 0.00 0.00 81 1017.7
20260507093536 14 155 16.1 33.8 0.00 0.00 0.00 81 1017.7
20260507092532 13 133 14.5 22.5 0.00 0.00 0.00 84 1017.6
20260507091529 13 140 16.1 30.6 0.00 0.00 0.00 84 1017.6
20260507090527 13 138 17.7 33.8 0.00 0.00 0.00 85 1017.7
20260507085523 13 140 16.1 27.4 0.00 0.00 0.00 84 1017.7
20260507084541 12 141 14.5 29.0 0.00 0.00 0.00 85 1017.6
20260507083518 13 139 16.1 25.7 0.00 0.00 0.00 84 1017.6
20260507082535 13 162 17.7 29.0 0.00 0.00 0.00 85 1017.6
20260507081532 12 143 16.1 27.4 0.00 0.00 0.00 85 1017.6
20260507080529 12 148 14.5 29.0 0.00 0.00 0.00 82 1017.5
20260507075526 13 163 16.1 25.7 0.00 0.00 0.00 83 1017.7
20260507074543 12 156 12.9 20.9 0.00 0.00 0.00 82 1017.8
20260507073520 13 170 14.5 20.9 0.00 0.00 0.00 81 1017.8
20260507072517 13 161 16.1 24.1 0.00 0.00 0.00 82 1017.7
20260507071534 14 164 16.1 24.1 0.00 0.00 0.00 76 1017.7
20260507070531 13 171 14.5 19.3 0.00 0.00 0.00 81 1017.9
20260507065528 12 158 17.7 22.5 0.00 0.00 0.00 86 1017.9
20260507064525 12 179 16.1 19.3 0.00 0.00 0.00 96 1017.8
20260507063542 11 174 16.1 20.9 0.00 0.00 0.00 99 1017.7